Location: Campestrin
(46.4667°N, 11.7167°E)
Time: 03:58:24
(UTC+00:00)

Cosmos 1943 - Pass Details

Date: 18 April 2021
Orbit: 834 x 849 km, 71.0° (Epoch: 16 May)

Event Time Altitude Azimuth Distance (km) Brightness Sun altitude
Rises 22:42:43 0° 331° (NNW) 3,394 7.3 -32.0°
Reaches altitude 10° 22:45:10 10° 328° (NNW) 2,457 6.3 -32.0°
Enters shadow 22:49:11 46° 308° (NW) 1,122 4.0 -32.1°
